Location: Shenandoah County Park
(38.9356°N, 78.4524°W)
Time: 04:48:49
(UTC-04:00)

Explorer 11/Cluster Stage 4 - Pass Details

Date: 24 February 2024
Orbit: 465 x 1220 km, 28.8° (Epoch: 12 April)

Event Time Altitude Azimuth Distance (km) Brightness Sun altitude
Rises 01:31:12 0° 232° (SW) 4,124 - -57.4°
Reaches altitude 10° 01:34:34 10° 222° (SW) 3,134 - -57.0°
Maximum altitude 01:41:04 29° 166° (SSE) 1,952 - -56.3°
Drops below altitude 10° 01:46:59 10° 110° (ESE) 2,831 - -55.7°
Sets 01:49:53 0° 99° (E) 3,667 - -55.3°
